Theta_e
314 316 317 318 317 316 315 317 317 317 315 313 312 319 320 319 314 315 327 325 323 321 319 323 326 325 328 331 329 330 331 326 326 327 323 323 322 322 321 320 321 323 325 328 330
315 318 318 318 316 316 316 316 317 317 314 311 312 318 318 315 313 321 325 321 320 319 319 325 325 325 326 330 330 328 326 326 325 324 324 323 323 322 321 320 319 321 324 327 330
317 318 318 318 317 317 317 318 317 316 313 311 315 317 314 313 320 323 319 320 318 318 317 320 323 324 327 328 327 327 325 325 326 324 321 322 321 321 321 319 319 319 320 322 326
315 317 317 317 317 318 317 317 316 315 311 311 316 315 311 319 323 319 317 315 317 316 321 322 323 324 327 328 325 325 324 327 324 322 321 322 321 319 320 319 318 318 319 319 319
314 315 316 317 317 317 316 316 315 313 311 312 315 312 313 320 319 316 315 314 315 319 321 322 323 324 325 325 324 324 323 323 322 321 322 322 320 318 316 317 317 317 317 317 316
314 314 314 314 315 315 315 315 313 311 310 312 314 311 319 324 316 314 314 314 316 320 320 321 321 321 323 322 323 323 322 321 321 321 321 320 318 319 316 316 316 317 316 315 314
314 313 313 314 314 314 314 313 311 309 311 312 312 314 323 319 315 313 313 313 315 319 318 318 318 320 321 322 322 320 319 319 320 320 320 320 319 318 318 316 316 316 315 314 313
314 314 313 313 314 314 312 310 309 310 310 311 312 318 319 317 315 313 315 315 314 314 315 314 316 320 321 320 319 319 317 318 318 320 320 319 316 318 317 316 316 315 314 312 311
314 313 313 313 313 310 309 309 310 310 309 312 316 319 316 314 315 313 315 316 315 316 314 314 318 322 318 317 317 317 315 316 321 320 319 317 318 316 316 316 316 315 313 312 311
312 313 312 310 309 309 309 309 309 311 313 316 319 319 315 315 315 314 313 314 317 317 320 320 320 317 317 316 316 318 318 317 320 320 318 318 317 315 316 316 316 315 313 312 310
309 309 309 309 308 309 309 312 314 316 317 318 317 315 315 315 316 317 315 316 317 318 318 320 317 317 316 318 318 318 318 317 318 320 318 317 317 316 315 315 315 315 313 312 311
308 308 308 308 308 309 314 318 319 317 317 316 316 315 315 316 317 318 317 317 317 317 317 316 316 318 320 319 319 319 319 318 319 319 318 317 317 316 315 315 315 316 314 312 312
308 308 308 309 309 316 319 320 317 318 317 317 316 316 315 317 319 318 318 318 318 318 318 316 321 320 320 320 320 320 320 319 319 319 318 318 318 318 316 314 315 315 315 313 312
309 309 309 309 310 314 320 319 316 317 313 317 317 317 315 318 319 317 317 319 319 319 320 319 319 320 319 320 319 319 319 319 320 318 318 318 316 314 315 313 313 315 315 314 312
308 309 309 318 317 319 321 313 316 319 319 317 318 318 318 319 319 320 318 319 320 320 317 317 319 319 320 320 319 320 318 318 319 318 316 315 316 313 313 314 311 312 315 314 313
308 309 317 317 318 320 316 314 317 316 322 320 318 318 317 319 319 318 317 317 317 317 319 318 318 318 318 318 317 317 317 316 317 315 315 314 315 314 316 315 312 312 314 314 313
309 312 318 318 320 316 315 317 315 318 320 321 319 318 318 318 318 318 317 316 316 318 318 318 318 315 316 317 317 317 315 316 318 318 317 316 315 314 316 313 313 311 314 314 313
312 316 317 319 319 314 318 317 322 321 321 320 320 320 320 319 319 319 319 317 312 313 313 317 319 315 315 316 316 317 315 315 317 318 314 316 315 314 311 312 313 315 315 313 313
315 316 316 315 314 315 321 317 319 320 320 321 320 320 320 318 318 318 318 314 309 308 313 311 315 312 311 312 313 315 312 312 312 311 310 311 314 312 310 310 311 311 312 312 311
315 315 316 316 314 317 317 318 315 315 316 319 321 319 320 317 316 316 316 313 310 309 309 310 309 312 310 311 312 312 312 312 310 313 315 312 314 313 311 310 309 308 310 310 310
314 315 315 317 315 319 315 315 313 313 315 317 318 320 319 318 317 316 315 313 312 309 308 309 307 310 309 310 311 310 309 310 309 309 310 310 310 310 311 309 308 308 310 311 310
316 311 312 316 315 315 314 314 313 313 313 314 314 315 315 315 316 315 314 312 309 309 310 307 306 308 309 308 308 310 311 309 310 311 309 308 310 308 306 308 309 309 309 310 310
316 312 311 315 313 310 311 311 311 312 313 313 314 312 311 313 314 312 313 309 308 308 309 308 306 307 310 311 310 308 309 310 307 306 308 307 308 307 308 309 310 310 309 309 309
312 309 312 313 314 313 313 312 310 309 311 310 310 310 310 311 310 311 312 309 307 309 307 307 307 308 310 310 310 309 311 310 307 305 307 308 309 309 307 307 307 308 308 308 308
312 312 311 309 311 311 312 312 310 309 309 309 308 309 309 310 309 309 311 308 307 310 308 306 308 309 309 309 310 309 309 308 307 307 308 309 308 307 307 307 308 308 308 308 308
313 312 309 310 311 310 309 310 309 308 308 308 308 309 308 307 307 309 309 309 309 309 309 306 307 308 308 309 309 309 308 308 308 308 307 307 307 307 309 309 308 308 308 308 308
313 311 313 309 309 309 309 310 309 307 307 307 308 307 307 307 306 306 307 307 308 308 308 307 306 306 308 309 309 309 310 311 310 309 309 309 307 308 306 307 307 308 308 307 306
Wind_Speed
11 10 10 11 12 12 14 13 14 12 10 10 10 10 7 5 4 7 4 4 6 5 1 3 4 6 3 3 4 3 5 3 3 2 4 7 3 8 8 17 13 9 10 6 3
11 9 8 9 10 10 11 11 11 11 10 10 11 10 7 5 7 7 6 5 5 4 4 5 5 1 1 1 1 4 4 1 2 2 3 5 8 6 5 11 10 13 9 7 7
11 9 8 8 9 9 10 10 12 11 10 10 11 9 6 5 5 4 4 6 5 3 3 4 4 3 1 1 2 2 4 4 3 5 6 5 4 4 12 2 5 11 9 8 8
12 11 9 9 9 9 10 11 13 11 11 11 11 9 7 8 4 2 4 6 6 3 2 4 1 2 1 3 3 5 5 5 4 1 1 1 9 5 2 5 14 14 10 9 9
14 12 11 10 10 10 11 12 12 11 12 11 11 8 8 4 3 1 4 5 6 4 3 1 2 3 1 5 2 4 5 5 4 3 5 7 3 7 9 10 12 13 10 11 11
13 13 13 12 11 11 11 12 11 11 12 10 10 8 6 2 3 0 3 4 7 7 3 2 1 3 1 4 4 4 9 9 6 6 3 5 4 2 9 12 12 12 12 12 10
14 12 13 13 11 10 10 11 10 12 11 10 9 9 4 1 3 2 4 3 6 7 6 4 4 3 2 4 3 7 4 3 9 10 5 7 1 8 13 17 15 14 13 11 10
14 12 12 11 9 9 10 10 12 12 10 10 10 6 1 4 3 5 5 3 3 3 2 3 5 3 3 4 1 3 4 3 6 14 5 8 7 5 21 21 18 18 15 12 11
12 11 11 8 7 9 10 11 11 10 9 10 7 1 1 7 6 3 7 5 1 3 3 4 5 3 2 4 4 2 4 6 2 13 5 5 5 8 21 22 20 21 20 17 14
9 8 7 7 10 11 12 12 11 10 12 9 3 2 5 4 6 4 3 4 3 1 2 2 2 3 3 4 4 3 3 2 5 7 6 7 10 7 26 25 24 22 24 20 20
7 8 10 11 12 14 16 15 8 6 8 2 6 8 12 8 8 4 1 2 3 0 2 1 4 3 5 6 5 2 1 4 2 3 5 8 8 10 25 24 20 22 25 25 23
10 10 11 13 14 17 13 2 5 8 5 2 7 13 8 5 5 2 2 0 3 2 2 4 2 3 3 3 3 3 3 6 3 2 1 6 13 11 20 24 31 26 22 26 22
12 12 13 14 17 11 3 4 5 11 5 2 5 4 5 4 3 2 2 0 2 2 3 5 1 3 1 1 2 3 1 3 2 2 4 3 8 5 3 12 25 21 20 21 24
14 14 14 13 9 3 1 3 8 3 4 2 2 2 5 4 3 0 1 1 2 2 2 1 3 2 1 2 1 2 1 2 4 5 3 3 5 6 4 6 11 20 18 19 22
14 16 17 8 9 3 1 5 3 1 4 5 4 7 7 3 8 0 1 1 1 3 5 5 3 2 2 1 2 3 1 1 1 1 4 3 1 7 7 4 8 16 20 18 17
13 15 11 8 5 1 0 7 1 5 2 3 5 4 4 4 5 3 0 0 1 2 2 4 2 2 2 2 3 3 2 3 2 2 2 6 7 5 4 7 5 15 24 23 19
13 15 8 6 2 1 4 4 4 3 4 4 4 5 5 5 5 5 3 1 2 2 1 3 2 2 2 1 2 3 5 3 2 2 5 3 5 7 2 3 5 17 29 27 23
12 9 4 5 1 3 6 4 2 4 3 2 4 5 3 4 2 3 0 1 5 2 1 4 2 2 1 1 2 4 6 4 4 3 4 5 5 3 2 10 11 15 26 24 23
9 5 4 3 3 6 2 3 3 2 2 4 2 3 3 3 4 2 2 2 2 5 4 3 2 1 4 2 2 1 2 4 1 2 1 4 1 3 4 4 8 10 17 18 20
8 3 1 0 4 5 4 2 2 3 4 1 1 5 3 4 3 5 3 3 3 2 2 1 0 2 1 1 1 2 2 2 2 2 4 5 1 2 4 4 4 8 12 12 13
7 2 3 4 6 2 2 2 3 3 5 4 3 2 2 4 3 2 2 3 5 0 1 2 3 2 2 4 5 1 2 2 2 5 4 1 5 5 1 1 4 3 8 14 19
1 1 3 8 2 2 2 2 2 2 3 3 3 3 3 3 1 3 4 3 4 3 2 0 3 3 5 1 1 1 3 4 4 4 1 4 5 2 8 10 10 5 4 1 12
1 3 5 8 2 1 2 3 4 2 3 1 2 3 3 3 2 3 5 1 3 4 1 2 1 2 4 4 2 1 3 3 4 3 4 4 5 3 6 5 2 3 3 5 6
1 2 3 7 4 3 4 3 3 2 2 3 3 2 1 2 3 2 3 1 1 2 0 1 1 5 5 3 3 2 3 1 4 3 3 6 4 7 5 3 4 3 3 5 7
3 2 3 2 4 4 2 5 4 3 1 0 1 2 1 3 3 4 3 2 0 2 0 3 2 2 4 6 4 5 7 7 7 6 4 4 7 7 5 2 1 2 5 6 10
1 0 2 1 2 5 3 2 5 4 3 2 0 4 2 3 1 3 4 4 4 3 2 1 2 3 4 4 3 5 9 8 6 6 8 7 8 2 4 7 11 11 14 19 25
3 5 1 1 1 4 2 1 4 10 2 4 3 4 5 3 6 6 5 4 5 6 4 4 2 3 4 6 6 6 3 2 4 3 2 2 5 5 6 10 13 19 23 22 14
Wind_Direction
243 243 247 242 240 247 247 256 260 267 242 223 212 216 212 206 206 184 199 210 271 291 205 129 75 46 26 350 6 9 57 23 36 106 157 98 95 67 100 88 72 82 92 90 73
227 235 241 230 229 238 240 244 245 254 228 213 203 208 210 196 184 206 229 251 258 265 220 151 116 130 258 239 47 75 94 111 6 57 116 103 113 119 119 102 85 94 103 134 152
226 227 236 227 230 233 230 233 244 244 219 204 196 204 204 176 171 202 234 248 244 203 264 108 100 348 296 139 61 59 153 150 44 66 59 108 107 124 139 92 149 121 111 111 134
227 226 231 228 231 228 235 244 249 227 208 191 190 200 191 154 165 217 229 220 212 131 89 85 356 261 216 150 115 94 84 161 135 102 55 40 131 84 87 139 150 133 123 133 125
224 225 230 230 231 236 242 249 229 215 197 176 187 200 175 186 180 305 195 178 170 150 29 145 13 248 9 125 102 111 156 120 147 136 111 131 87 140 135 145 155 141 136 127 131
224 223 231 236 237 243 241 232 218 200 182 166 184 194 166 204 134 83 168 170 166 143 185 168 79 76 7 84 95 136 156 144 161 147 138 126 138 137 183 165 157 159 152 141 130
226 226 232 237 240 239 232 221 199 178 166 163 180 183 180 180 197 139 128 128 166 169 179 178 154 101 103 100 148 140 116 159 191 176 182 156 195 231 195 175 170 170 170 169 150
216 223 227 229 231 230 218 199 172 162 152 162 173 178 116 199 169 137 117 51 114 154 177 152 148 116 90 121 133 166 125 167 230 176 204 152 262 198 170 174 182 177 165 160 164
216 219 219 217 217 206 183 162 151 150 146 152 159 231 237 146 159 130 156 175 149 53 93 118 139 106 115 93 18 329 230 210 355 184 150 165 254 183 177 184 190 186 174 168 169
196 200 199 187 178 168 151 134 131 132 135 139 165 306 203 163 177 134 97 158 136 171 108 141 104 74 31 87 216 220 239 291 194 217 166 200 253 195 190 191 199 191 177 178 175
164 165 164 163 164 152 138 125 135 121 144 187 212 112 135 135 118 112 208 99 113 135 115 202 74 206 234 214 206 186 242 275 230 238 163 227 248 220 205 198 200 195 187 183 186
146 150 154 158 156 141 134 149 113 127 130 170 109 116 140 142 128 98 129 288 186 221 170 30 228 214 118 66 46 16 338 295 28 113 133 257 257 249 190 199 197 196 192 187 189
144 146 151 151 145 130 89 47 149 145 118 150 160 138 156 147 105 100 171 134 226 276 211 157 210 135 81 40 354 14 25 316 234 294 280 311 298 301 190 177 197 201 200 195 192
149 149 143 134 151 179 25 1 158 132 94 209 220 152 156 124 70 86 128 76 301 206 13 172 145 105 134 242 296 261 15 35 2 42 246 51 283 308 168 152 177 195 202 202 195
157 150 140 142 144 157 149 159 140 267 102 177 129 151 150 138 142 221 155 159 8 338 76 248 149 150 191 244 4 185 62 9 342 324 1 286 166 275 93 176 204 202 202 203 204
161 157 145 140 147 137 114 166 176 46 148 144 138 171 144 197 146 121 46 215 327 358 224 214 144 84 130 92 73 157 341 357 51 79 353 239 165 274 205 202 201 202 202 206 202
163 162 148 155 167 198 155 160 53 124 151 150 194 159 202 182 150 159 175 210 138 60 318 160 179 75 97 99 16 79 61 348 352 2 229 323 120 251 201 66 203 194 201 202 206
157 166 196 177 210 173 156 65 101 100 104 127 143 170 169 129 90 135 359 151 38 57 325 156 307 13 56 110 172 192 155 155 236 215 261 326 243 284 12 36 27 207 201 197 203
147 140 169 182 145 158 116 76 188 19 349 122 51 170 211 90 103 138 163 101 51 33 174 33 322 336 61 2 107 274 179 174 169 270 99 237 109 336 44 29 65 113 171 182 186
138 127 318 146 168 173 73 225 109 25 346 306 162 181 147 143 145 170 138 308 124 61 50 179 308 210 225 19 275 162 251 62 12 258 283 309 31 253 259 215 115 113 145 175 201
154 192 183 172 162 148 144 186 124 37 30 38 37 55 109 151 154 224 88 18 16 149 4 329 101 279 65 198 193 110 282 208 142 157 184 259 279 297 128 278 176 196 213 221 228
274 45 170 171 117 221 159 51 80 71 27 47 43 29 57 41 55 82 117 49 7 353 44 302 147 234 234 189 91 190 196 150 126 276 233 144 272 336 120 105 115 135 137 138 231
235 136 160 181 126 3 203 75 72 43 57 37 90 57 15 46 118 67 84 40 36 40 105 337 286 6 338 354 342 152 240 196 127 88 224 124 261 231 104 99 214 225 314 325 310
280 64 138 201 255 175 170 152 110 48 76 56 113 64 71 107 59 122 105 120 60 62 119 46 248 166 194 192 196 268 231 229 138 124 212 222 259 287 354 103 60 51 354 338 330
222 234 170 219 277 208 92 141 124 127 60 252 39 197 187 151 129 147 118 133 245 207 271 111 215 329 271 267 238 245 256 249 217 219 223 236 272 270 253 144 49 6 38 1 332
250 144 170 64 336 106 66 215 131 110 130 217 108 183 76 85 111 146 146 165 191 207 221 53 265 16 297 338 23 274 271 262 244 255 262 265 279 333 25 18 17 6 341 325 318
222 249 248 240 283 93 218 146 129 123 75 92 106 108 108 145 110 96 75 96 137 159 190 141 111 58 275 351 339 324 261 178 206 178 223 282 259 347 23 31 2 343 327 318 318